Stations météo

réclame
Mon MeteoGroup
Landsort, Suède (2582): Température de l'air & dewpoint: 14.06.2018 17:00:00 - 20.06.2018 17:00:00 (CEST)Landsort, Suède (2582): Vitesse du vent & gusts: 14.06.2018 17:00:00 - 20.06.2018 17:00:00 (CEST)Landsort, Suède (2582): Direction du vent: 14.06.2018 17:00:00 - 20.06.2018 17:00:00 (CEST)Landsort, Suède (2582): reduced air pressure: 14.06.2018 17:00:00 - 20.06.2018 17:00:00 (CEST)Landsort, Suède (2582): visibility: 14.06.2018 17:00:00 - 20.06.2018 17:00:00 (CEST)Landsort, Suède (2582): Quantités de précipitations: 14.06.2018 17:00:00 - 20.06.2018 17:00:00 (CEST)
Date & Time tt [°C] td [°C] ff [km/h] ff [knt] fx [km/h] fx [knt] dd ppp [hPa] vv [km] rr [mm]
20.06.2018 17:00:00 - - - - - - - - - -
20.06.2018 16:00:00 14,6 8,1 24 13 41 22 W 1011,4 46 0,0
20.06.2018 15:00:00 14,9 8,1 23 13 45 24 W 1011,5 43 0,0
20.06.2018 14:00:00 15,3 7,6 37 20 49 26 W 1011,9 41 0,0
20.06.2018 13:00:00 14,5 8,2 35 19 49 26 WSW 1012,2 39 0,0
20.06.2018 12:00:00 14,5 8,7 37 20 46 25 WSW 1012,3 27 0,0
20.06.2018 11:00:00 14,3 8,7 36 19 45 25 WSW 1012,1 31 0,0
20.06.2018 10:00:00 14,1 8,7 31 17 38 21 WSW 1012,2 34 0,0
20.06.2018 09:00:00 14,3 8,0 27 14 46 25 W 1012,0 32 0,0
20.06.2018 08:00:00 13,5 8,1 29 16 50 27 W 1012,0 35 0,0
20.06.2018 07:00:00 13,0 8,5 34 19 53 28 W 1011,9 29 0,0
20.06.2018 06:00:00 12,5 8,6 38 21 53 28 W 1011,5 27 0,0
20.06.2018 05:00:00 12,3 8,4 38 21 55 30 W 1011,5 31 0,0
20.06.2018 04:00:00 12,1 8,6 43 23 55 30 W 1011,2 31 0,0
20.06.2018 03:00:00 12,4 9,0 45 24 59 32 W 1010,6 31 0,0
20.06.2018 02:00:00 12,9 8,8 45 25 59 32 W 1010,3 30 0,0
20.06.2018 01:00:00 13,3 8,8 42 23 62 34 W 1010,1 34 0,0
20.06.2018 00:00:00 13,5 9,0 39 21 69 37 W 1010,3 31 0,0
19.06.2018 23:00:00 14,4 8,8 46 25 69 37 W 1009,7 30 0,0
19.06.2018 22:00:00 15,3 8,3 54 29 67 36 W 1009,1 32 0,0
19.06.2018 21:00:00 16,0 8,0 57 31 67 36 W 1008,5 30 0,0
19.06.2018 20:00:00 16,3 9,2 43 23 61 33 W 1008,1 31 0,0
19.06.2018 19:00:00 16,6 8,3 44 24 61 33 WSW 1007,6 40 0,0
19.06.2018 18:00:00 17,2 8,1 45 24 59 32 WSW 1007,2 42 0,0
19.06.2018 17:00:00 17,3 9,2 39 21 58 31 WSW 1006,9 36 0,0
19.06.2018 16:00:00 17,7 8,5 43 23 61 33 W 1006,5 30 0,0
19.06.2018 15:00:00 17,3 8,2 44 24 61 33 W 1006,2 42 0,0
19.06.2018 14:00:00 17,7 9,1 45 24 71 39 WSW 1005,7 33 0,0
19.06.2018 13:00:00 16,4 9,6 44 24 71 39 WSW 1005,4 33 0,0
19.06.2018 12:00:00 15,4 10,2 52 28 70 38 WSW 1005,5 25 0,0
19.06.2018 11:00:00 15,3 9,9 52 28 70 38 W 1005,9 29 0,0
19.06.2018 10:00:00 15,6 9,3 46 25 75 40 W 1005,7 32 0,0
19.06.2018 09:00:00 15,2 8,7 48 26 75 40 WSW 1005,8 28 0,0
19.06.2018 08:00:00 14,9 9,0 55 30 74 40 W 1005,9 19 0,0
19.06.2018 07:00:00 16,0 10,1 51 28 71 38 WSW 1006,0 50 0,0
19.06.2018 06:00:00 16,1 13,2 32 17 59 32 WSW 1006,4 48 0,0
19.06.2018 05:00:00 16,3 13,4 40 22 58 31 SW 1006,6 46 0,0
19.06.2018 04:00:00 16,7 13,4 40 22 56 30 SW 1007,4 49 0,0
19.06.2018 03:00:00 - - - - 53 28 - - - -
19.06.2018 02:00:00 - - - - - - - - - -
19.06.2018 01:00:00 - - - - - - - - - -
19.06.2018 00:00:00 17,3 12,2 25 13 32 18 SW 1010,5 50 0,0
18.06.2018 23:00:00 17,1 12,4 19 10 27 15 SW 1011,0 50 0,0
18.06.2018 22:00:00 17,3 13,0 18 10 31 17 WSW 1011,3 50 0,0
18.06.2018 21:00:00 17,1 13,8 20 11 37 20 SSW 1011,2 44 0,0
18.06.2018 20:00:00 17,6 12,9 24 13 41 22 SW 1011,5 50 0,0
18.06.2018 19:00:00 17,8 12,9 24 13 41 22 SW 1011,7 47 0,0
18.06.2018 18:00:00 18,2 12,4 21 11 - - SW 1011,8 41 0,0
18.06.2018 17:00:00 18,1 11,9 27 14 - - SW 1012,5 45 0,0
18.06.2018 16:00:00 18,2 11,0 24 13 35 19 WSW 1012,8 37 0,0
18.06.2018 15:00:00 18,1 10,5 27 15 36 20 WSW 1012,9 35 0,0
18.06.2018 14:00:00 16,9 10,3 23 12 41 22 SW 1013,2 46 0,0
18.06.2018 13:00:00 17,3 9,2 27 15 41 22 WSW 1013,1 45 0,0
18.06.2018 12:00:00 16,4 8,9 30 16 42 23 WSW 1013,0 39 0,0
18.06.2018 11:00:00 15,9 8,9 29 16 42 23 WSW 1013,2 47 0,0
18.06.2018 10:00:00 15,3 9,4 30 16 44 24 WSW 1013,1 47 0,0
18.06.2018 09:00:00 15,4 10,0 30 16 44 24 WSW 1013,0 42 0,0
18.06.2018 08:00:00 15,3 10,9 30 16 40 22 WSW 1012,9 35 0,0
18.06.2018 07:00:00 15,0 10,2 31 17 39 21 WSW 1012,8 40 0,0
18.06.2018 06:00:00 14,6 10,2 29 16 41 22 WSW 1012,7 46 0,0
18.06.2018 05:00:00 14,4 9,4 32 17 49 26 W 1012,6 50 0,0
18.06.2018 04:00:00 14,4 9,6 30 16 52 28 W 1012,6 50 0,0
18.06.2018 03:00:00 14,8 8,3 39 21 52 28 W 1012,4 50 0,0
18.06.2018 02:00:00 15,4 9,1 38 21 50 27 W 1012,4 50 0,0
18.06.2018 01:00:00 15,7 10,7 39 21 50 27 W 1011,8 50 0,0
18.06.2018 00:00:00 16,4 12,2 34 18 46 25 W 1011,4 50 0,0
17.06.2018 23:00:00 16,8 15,0 24 13 37 20 WSW 1011,1 45 0,0
17.06.2018 22:00:00 16,7 15,1 22 12 37 20 SW 1010,9 41 0,0
17.06.2018 21:00:00 17,1 15,1 24 13 37 20 SW 1010,5 30 0,0
17.06.2018 20:00:00 16,5 14,7 18 10 36 20 SSW 1010,7 15 4,0
17.06.2018 19:00:00 16,8 13,5 14 8 25 14 SSE 1010,9 32 0,0
17.06.2018 18:00:00 16,5 14,9 16 8 33 18 SE 1011,5 17 0,3
17.06.2018 17:00:00 16,7 14,9 21 12 34 19 SE 1011,9 21 0,0
17.06.2018 16:00:00 16,8 14,6 28 15 34 19 ESE 1012,2 35 0,0
17.06.2018 15:00:00 17,0 14,3 29 16 32 18 ESE 1013,1 31 0,0
17.06.2018 14:00:00 17,0 14,3 24 13 29 16 SE 1013,5 26 0,0
17.06.2018 13:00:00 16,5 14,1 23 13 29 16 SE 1014,4 23 0,0
17.06.2018 12:00:00 17,2 13,9 22 12 27 14 SE 1014,7 29 0,0
17.06.2018 11:00:00 16,7 13,4 20 11 27 14 SE 1015,5 25 0,0
17.06.2018 10:00:00 17,1 13,4 19 10 27 14 SE 1015,6 30 0,0
17.06.2018 09:00:00 17,2 13,7 21 11 26 14 SSE 1015,8 32 0,0
17.06.2018 08:00:00 17,4 14,7 17 9 20 11 SE 1015,7 24 0,0
17.06.2018 07:00:00 16,5 14,9 10 5 23 13 SE 1016,1 24 0,0
17.06.2018 06:00:00 16,1 15,0 14 8 23 13 SSE 1016,2 20 0,0
17.06.2018 05:00:00 15,9 15,1 18 10 21 11 SSE 1016,4 16 0,0
17.06.2018 04:00:00 16,1 14,5 13 7 15 8 SE 1016,4 30 0,0
17.06.2018 03:00:00 15,9 13,2 8 5 16 9 SE 1016,8 50 0,0
17.06.2018 02:00:00 16,2 12,4 11 6 17 9 SSE 1016,8 50 0,0
17.06.2018 01:00:00 16,0 12,0 11 6 17 9 SSE 1017,0 50 0,0
17.06.2018 00:00:00 15,9 11,1 0 0 10 5 N 1017,1 50 0,0
16.06.2018 23:00:00 16,6 11,1 6 3 11 6 SW 1017,0 50 0,0
16.06.2018 22:00:00 16,6 10,7 8 4 13 7 SW 1017,0 50 0,0
16.06.2018 21:00:00 16,9 10,3 9 5 16 9 SW 1017,1 50 0,0
16.06.2018 20:00:00 17,3 10,4 9 5 18 10 SSW 1017,2 50 0,0
16.06.2018 19:00:00 18,1 9,4 11 6 21 11 SSW 1017,3 49 0,0
16.06.2018 18:00:00 18,5 9,0 13 7 26 14 SW 1017,3 48 0,0
16.06.2018 17:00:00 18,3 8,0 16 9 26 14 SSW 1017,3 49 0,0
16.06.2018 16:00:00 18,1 8,9 19 11 25 13 S 1017,3 45 0,0
16.06.2018 15:00:00 19,2 9,9 16 8 23 13 S 1017,4 42 0,0
16.06.2018 14:00:00 19,3 9,2 14 8 19 10 S 1017,7 48 0,0
16.06.2018 13:00:00 18,7 8,1 14 8 18 10 S 1017,9 38 0,0
16.06.2018 12:00:00 18,8 5,6 8 5 15 8 WSW 1017,9 39 0,0
16.06.2018 11:00:00 18,3 6,5 6 4 20 11 W 1017,8 39 0,0
16.06.2018 10:00:00 18,1 6,0 14 8 20 11 NW 1017,7 47 0,0
16.06.2018 09:00:00 17,8 6,9 13 7 25 13 NW 1017,6 49 0,0
16.06.2018 08:00:00 16,5 7,4 18 10 27 14 NW 1017,5 50 0,0
16.06.2018 07:00:00 15,8 7,3 20 11 27 14 NW 1017,3 45 0,0
16.06.2018 06:00:00 15,4 7,2 16 9 24 13 NW 1017,2 50 0,0
16.06.2018 05:00:00 15,5 8,5 16 8 23 12 NW 1016,9 48 0,0
16.06.2018 04:00:00 15,4 9,5 14 7 23 12 NNW 1016,6 50 0,0
16.06.2018 03:00:00 15,0 11,2 12 7 16 8 NNW 1016,2 44 0,0
16.06.2018 02:00:00 15,5 14,4 7 4 14 8 NNW 1015,9 21 0,0
16.06.2018 01:00:00 16,2 14,9 5 3 17 9 W 1015,6 21 0,0
16.06.2018 00:00:00 16,2 15,2 11 6 22 12 SSW 1015,3 19 0,0
15.06.2018 23:00:00 16,3 15,2 14 8 29 15 S 1015,1 21 0,0
15.06.2018 22:00:00 16,7 14,9 19 10 29 16 SSW 1014,9 29 0,0
15.06.2018 21:00:00 17,1 14,7 22 12 31 17 SSW 1014,6 40 0,0
15.06.2018 20:00:00 17,8 14,1 21 11 31 17 SSW 1014,4 35 0,0
15.06.2018 19:00:00 18,0 14,3 22 12 33 18 SSW 1014,1 33 0,0
15.06.2018 18:00:00 18,1 14,2 25 14 33 18 SSW 1014,1 37 0,0
15.06.2018 17:00:00 19,0 13,8 18 10 37 20 SSW 1014,0 37 0,0
15.06.2018 16:00:00 19,3 9,8 23 13 40 21 WSW 1013,7 37 0,0
15.06.2018 15:00:00 19,0 10,3 30 16 40 21 SW 1013,4 33 0,0
15.06.2018 14:00:00 18,8 10,1 26 14 39 21 SW 1013,2 39 0,0
15.06.2018 13:00:00 18,9 9,7 26 14 44 24 WSW 1012,8 39 0,0
15.06.2018 12:00:00 17,8 9,7 32 17 44 24 WSW 1012,3 33 0,0
15.06.2018 11:00:00 17,3 9,9 35 19 43 23 WSW 1011,8 24 0,0
15.06.2018 10:00:00 17,3 10,7 29 16 45 25 WSW 1011,4 30 0,0
15.06.2018 09:00:00 17,0 11,1 30 16 47 25 WSW 1010,7 40 0,0
15.06.2018 08:00:00 16,7 11,6 37 20 47 25 W 1010,2 35 0,0
15.06.2018 07:00:00 16,7 12,4 27 15 38 21 W 1009,8 37 0,0
15.06.2018 06:00:00 16,8 13,7 26 14 48 26 WSW 1009,2 42 0,0
15.06.2018 05:00:00 17,0 13,7 29 16 48 26 WSW 1008,8 41 0,0
15.06.2018 04:00:00 17,0 13,5 30 16 41 22 WSW 1008,4 43 0,0
15.06.2018 03:00:00 17,2 13,3 33 18 41 22 SW 1008,2 50 0,0
15.06.2018 02:00:00 - - - - - - - - - -
15.06.2018 01:00:00 17,2 13,1 22 12 34 18 SW 1008,3 50 0,0
15.06.2018 00:00:00 16,5 14,7 24 13 38 21 SSW 1008,3 34 0,0
14.06.2018 23:00:00 16,6 14,6 26 14 43 23 SSW 1008,2 35 0,0
14.06.2018 22:00:00 16,5 14,1 29 15 44 24 SSW 1008,5 41 0,0
14.06.2018 21:00:00 16,6 14,1 33 18 44 24 SSW 1008,2 39 0,0
14.06.2018 20:00:00 16,8 13,9 31 17 43 23 SSW 1008,2 40 0,0
14.06.2018 19:00:00 17,3 13,4 31 17 42 23 SSW 1008,3 32 0,0
14.06.2018 18:00:00 17,3 14,8 27 15 36 19 SSW 1008,8 20 0,0
14.06.2018 17:00:00 17,3 14,8 24 13 32 18 S 1009,2 23 0,0

tt = Température de l'air
td = dewpoint
ff = Vitesse du vent
fx = gusts
dd = Direction du vent
ppp = reduced air pressure
vv = visibility
rr = Quantités de précipitations

stations d'obs. à proximité